Time,TemperatureF,DewpointF,PressureIn,WindDirection,WindDirectionDegrees,WindSpeedMPH,WindSpeedGustMPH,Humidity,HourlyPrecipIn,Conditions,Clouds,dailyrainin,SoftwareType,DateUTC
2013-08-19 00:02:00,76.3,75.0,30.04,SE,141,0.0,3.0,96,0.00,,,0.47,meteohub,2013-08-19 04:02:00,
2013-08-19 00:07:00,76.3,75.0,30.04,SE,141,1.0,3.0,96,0.00,,,0.00,meteohub,2013-08-19 04:07:00,
2013-08-19 00:12:00,76.3,75.0,30.04,East,82,3.0,4.0,96,0.00,,,0.00,meteohub,2013-08-19 04:12:00,
2013-08-19 00:17:00,75.9,74.7,30.04,ENE,61,3.0,8.0,96,0.00,,,0.00,meteohub,2013-08-19 04:17:00,
2013-08-19 00:22:00,75.7,74.5,30.04,ENE,67,1.0,8.0,96,0.00,,,0.00,meteohub,2013-08-19 04:22:00,
2013-08-19 00:27:00,75.7,74.5,30.04,ENE,68,3.0,8.0,96,0.00,,,0.00,meteohub,2013-08-19 04:27:00,
2013-08-19 00:32:00,75.7,74.5,30.03,ENE,78,2.0,7.0,96,0.00,,,0.00,meteohub,2013-08-19 04:32:00,
2013-08-19 00:37:00,75.6,74.3,30.03,ENE,75,1.0,7.0,96,0.00,,,0.00,meteohub,2013-08-19 04:37:00,
2013-08-19 00:42:00,75.6,74.3,30.04,East,90,3.0,7.0,96,0.00,,,0.00,meteohub,2013-08-19 04:42:00,
2013-08-19 00:47:00,75.6,74.3,30.04,East,94,3.0,7.0,96,0.00,,,0.00,meteohub,2013-08-19 04:47:00,
2013-08-19 00:52:00,75.6,74.3,30.04,East,86,2.0,7.0,96,0.00,,,0.00,meteohub,2013-08-19 04:52:00,
2013-08-19 00:57:00,75.6,74.3,30.04,East,85,3.0,7.0,96,0.00,,,0.00,meteohub,2013-08-19 04:57:00,
2013-08-19 01:02:00,75.6,74.3,30.04,East,101,1.0,7.0,96,0.00,,,0.00,meteohub,2013-08-19 05:02:00,
2013-08-19 01:07:00,75.6,74.3,30.04,East,96,2.0,8.0,96,0.00,,,0.00,meteohub,2013-08-19 05:07:00,
2013-08-19 01:12:00,75.4,74.1,30.03,East,94,0.0,8.0,96,0.00,,,0.00,meteohub,2013-08-19 05:12:00,
2013-08-19 01:17:00,75.4,74.1,30.03,East,94,1.0,6.0,96,0.00,,,0.00,meteohub,2013-08-19 05:17:00,
2013-08-19 01:22:00,75.2,73.9,30.03,ESE,102,2.0,6.0,96,0.00,,,0.00,meteohub,2013-08-19 05:22:00,
2013-08-19 01:27:00,75.0,73.8,30.02,East,92,2.0,6.0,96,0.00,,,0.00,meteohub,2013-08-19 05:27:00,
2013-08-19 01:32:00,75.0,73.8,30.02,East,94,3.0,7.0,96,0.00,,,0.00,meteohub,2013-08-19 05:32:00,
2013-08-19 01:37:00,75.0,73.8,30.02,East,94,1.0,7.0,96,0.00,,,0.00,meteohub,2013-08-19 05:37:00,
2013-08-19 01:42:00,75.0,73.8,30.02,ESE,103,2.0,7.0,96,0.00,,,0.00,meteohub,2013-08-19 05:42:00,
2013-08-19 01:47:00,75.2,73.9,30.02,East,90,2.0,8.0,96,0.00,,,0.00,meteohub,2013-08-19 05:47:00,
2013-08-19 01:52:00,75.2,73.9,30.02,ESE,108,2.0,8.0,96,0.00,,,0.00,meteohub,2013-08-19 05:52:00,
2013-08-19 01:57:00,75.4,74.1,30.02,East,89,5.0,11.0,96,0.00,,,0.00,meteohub,2013-08-19 05:57:00,
2013-08-19 02:02:00,75.4,73.8,30.02,East,87,1.0,11.0,95,0.00,,,0.00,meteohub,2013-08-19 06:02:00,
2013-08-19 02:07:00,75.4,73.8,30.02,East,84,3.0,11.0,95,0.00,,,0.00,meteohub,2013-08-19 06:07:00,
2013-08-19 02:12:00,75.4,73.8,30.02,East,83,2.0,9.0,95,0.00,,,0.00,meteohub,2013-08-19 06:12:00,
2013-08-19 02:17:00,75.4,74.1,30.02,ESE,104,3.0,9.0,96,0.00,,,0.00,meteohub,2013-08-19 06:17:00,
2013-08-19 02:22:00,75.4,74.1,30.01,East,92,3.0,9.0,96,0.00,,,0.00,meteohub,2013-08-19 06:22:00,
2013-08-19 02:27:00,75.4,74.1,30.01,ESE,105,5.0,9.0,96,0.00,,,0.00,meteohub,2013-08-19 06:27:00,
2013-08-19 02:32:00,75.4,74.1,30.01,East,88,5.0,9.0,96,0.00,,,0.00,meteohub,2013-08-19 06:32:00,
2013-08-19 02:37:00,75.4,74.1,30.01,East,91,1.0,9.0,96,0.00,,,0.00,meteohub,2013-08-19 06:37:00,
2013-08-19 02:42:00,75.4,74.1,30.01,ESE,116,3.0,8.0,96,0.00,,,0.00,meteohub,2013-08-19 06:42:00,
2013-08-19 02:47:00,75.4,74.1,30.01,ESE,107,1.0,8.0,96,0.00,,,0.00,meteohub,2013-08-19 06:47:00,
2013-08-19 02:52:00,75.4,74.1,30.01,ESE,105,3.0,8.0,96,0.00,,,0.00,meteohub,2013-08-19 06:52:00,
2013-08-19 02:57:00,75.4,74.1,30.00,ESE,102,3.0,5.0,96,0.00,,,0.00,meteohub,2013-08-19 06:57:00,
2013-08-19 03:02:00,75.4,74.1,30.00,East,93,5.0,7.0,96,0.00,,,0.00,meteohub,2013-08-19 07:02:00,
2013-08-19 03:07:00,75.6,74.3,30.00,East,94,3.0,7.0,96,0.00,,,0.00,meteohub,2013-08-19 07:07:00,
2013-08-19 03:12:00,75.6,74.3,29.99,East,92,2.0,7.0,96,0.00,,,0.00,meteohub,2013-08-19 07:12:00,
2013-08-19 03:17:00,75.4,74.1,29.99,East,92,2.0,6.0,96,0.00,,,0.00,meteohub,2013-08-19 07:17:00,
2013-08-19 03:22:00,75.4,73.8,29.99,East,92,6.0,6.0,95,0.00,,,0.00,meteohub,2013-08-19 07:22:00,
2013-08-19 03:27:00,75.4,73.8,29.99,East,92,0.0,6.0,95,0.00,,,0.00,meteohub,2013-08-19 07:27:00,
2013-08-19 03:32:00,75.2,73.9,29.99,East,97,6.0,6.0,96,0.00,,,0.00,meteohub,2013-08-19 07:32:00,
2013-08-19 03:37:00,75.2,73.9,29.99,East,96,5.0,8.0,96,0.00,,,0.00,meteohub,2013-08-19 07:37:00,
2013-08-19 03:42:00,75.4,74.1,29.99,East,95,0.0,8.0,96,0.00,,,0.00,meteohub,2013-08-19 07:42:00,
2013-08-19 03:47:00,75.2,73.9,29.99,East,92,1.0,8.0,96,0.00,,,0.00,meteohub,2013-08-19 07:47:00,
2013-08-19 03:52:00,75.2,73.9,29.98,East,91,3.0,7.0,96,0.00,,,0.00,meteohub,2013-08-19 07:52:00,
2013-08-19 03:57:00,75.0,73.8,29.98,East,90,1.0,7.0,96,0.00,,,0.00,meteohub,2013-08-19 07:57:00,
2013-08-19 04:02:00,75.0,73.8,29.98,East,90,2.0,6.0,96,0.00,,,0.00,meteohub,2013-08-19 08:02:00,
2013-08-19 04:07:00,75.0,73.8,29.98,East,90,2.0,6.0,96,0.00,,,0.00,meteohub,2013-08-19 08:07:00,
2013-08-19 04:12:00,74.8,73.6,29.98,East,90,5.0,5.0,96,0.00,,,0.00,meteohub,2013-08-19 08:12:00,
2013-08-19 04:17:00,74.8,73.6,29.98,East,90,1.0,5.0,96,0.00,,,0.00,meteohub,2013-08-19 08:17:00,
2013-08-19 04:22:00,74.8,73.6,29.97,East,90,0.0,5.0,96,0.00,,,0.00,meteohub,2013-08-19 08:22:00,
2013-08-19 04:27:00,74.8,73.6,29.97,East,90,1.0,5.0,96,0.00,,,0.00,meteohub,2013-08-19 08:27:00,
2013-08-19 04:32:00,74.8,73.6,29.98,East,90,3.0,5.0,96,0.00,,,0.00,meteohub,2013-08-19 08:32:00,
2013-08-19 04:37:00,74.8,73.6,29.97,East,90,3.0,5.0,96,0.00,,,0.00,meteohub,2013-08-19 08:37:00,
2013-08-19 04:42:00,74.8,73.6,29.97,East,90,2.0,5.0,96,0.00,,,0.00,meteohub,2013-08-19 08:42:00,
2013-08-19 04:47:00,74.8,73.6,29.97,East,90,2.0,6.0,96,0.00,,,0.00,meteohub,2013-08-19 08:47:00,
2013-08-19 04:52:00,74.8,73.6,29.97,East,89,1.0,7.0,96,0.00,,,0.00,meteohub,2013-08-19 08:52:00,
2013-08-19 04:57:00,74.8,73.6,29.97,East,88,2.0,7.0,96,0.00,,,0.00,meteohub,2013-08-19 08:57:00,
2013-08-19 05:02:00,74.8,73.6,29.97,East,88,1.0,7.0,96,0.00,,,0.00,meteohub,2013-08-19 09:02:00,
2013-08-19 05:07:00,74.8,73.6,29.97,East,86,2.0,7.0,96,0.00,,,0.00,meteohub,2013-08-19 09:07:00,
2013-08-19 05:12:00,75.0,73.8,29.97,East,86,0.0,7.0,96,0.00,,,0.00,meteohub,2013-08-19 09:12:00,
2013-08-19 05:17:00,75.0,73.8,29.97,East,86,3.0,7.0,96,0.00,,,0.00,meteohub,2013-08-19 09:17:00,
2013-08-19 05:22:00,74.8,73.6,29.97,East,86,3.0,5.0,96,0.00,,,0.00,meteohub,2013-08-19 09:22:00,
2013-08-19 05:27:00,74.8,73.6,29.97,East,86,5.0,7.0,96,0.00,,,0.00,meteohub,2013-08-19 09:27:00,
2013-08-19 05:32:00,74.8,73.6,29.96,East,84,2.0,7.0,96,0.00,,,0.00,meteohub,2013-08-19 09:32:00,
2013-08-19 05:37:00,74.8,73.6,29.96,East,84,1.0,7.0,96,0.00,,,0.00,meteohub,2013-08-19 09:37:00,
2013-08-19 05:42:00,74.8,73.6,29.96,East,84,2.0,6.0,96,0.00,,,0.00,meteohub,2013-08-19 09:42:00,
2013-08-19 05:47:00,74.8,73.6,29.96,East,84,3.0,6.0,96,0.00,,,0.00,meteohub,2013-08-19 09:47:00,
2013-08-19 05:52:00,74.8,73.6,29.96,East,84,3.0,5.0,96,0.00,,,0.00,meteohub,2013-08-19 09:52:00,
2013-08-19 05:57:00,74.8,73.6,29.96,East,91,3.0,6.0,96,0.00,,,0.00,meteohub,2013-08-19 09:57:00,
2013-08-19 06:02:00,74.8,73.6,29.96,East,88,5.0,8.0,96,0.00,,,0.00,meteohub,2013-08-19 10:02:00,
2013-08-19 06:07:00,75.0,73.8,29.96,East,94,2.0,8.0,96,0.00,,,0.00,meteohub,2013-08-19 10:07:00,
2013-08-19 06:12:00,75.0,73.8,29.96,East,101,3.0,8.0,96,0.00,,,0.00,meteohub,2013-08-19 10:12:00,
2013-08-19 06:17:00,75.0,73.8,29.97,East,89,3.0,8.0,96,0.00,,,0.00,meteohub,2013-08-19 10:17:00,
2013-08-19 06:22:00,75.0,73.8,29.97,East,90,2.0,8.0,96,0.00,,,0.00,meteohub,2013-08-19 10:22:00,
2013-08-19 06:27:00,75.0,73.8,29.97,East,97,3.0,7.0,96,0.00,,,0.00,meteohub,2013-08-19 10:27:00,
2013-08-19 06:32:00,75.0,73.8,29.97,ENE,77,3.0,8.0,96,0.00,,,0.00,meteohub,2013-08-19 10:32:00,
2013-08-19 06:37:00,75.0,73.8,29.96,East,79,2.0,8.0,96,0.00,,,0.00,meteohub,2013-08-19 10:37:00,
2013-08-19 06:42:00,75.0,73.8,29.97,ENE,78,1.0,8.0,96,0.00,,,0.00,meteohub,2013-08-19 10:42:00,
2013-08-19 06:47:00,75.0,73.8,29.97,ENE,78,3.0,5.0,96,0.00,,,0.00,meteohub,2013-08-19 10:47:00,
2013-08-19 06:52:00,75.0,73.8,29.97,ENE,78,2.0,5.0,96,0.00,,,0.00,meteohub,2013-08-19 10:52:00,
2013-08-19 06:57:00,75.0,73.8,29.97,East,80,1.0,4.0,96,0.00,,,0.00,meteohub,2013-08-19 10:57:00,
2013-08-19 07:02:00,75.0,73.8,29.97,East,80,1.0,5.0,96,0.00,,,0.00,meteohub,2013-08-19 11:02:00,
2013-08-19 07:07:00,74.8,73.6,29.98,East,80,1.0,5.0,96,0.00,,,0.00,meteohub,2013-08-19 11:07:00,
2013-08-19 07:12:00,75.0,73.8,29.98,East,79,2.0,6.0,96,0.00,,,0.00,meteohub,2013-08-19 11:12:00,
2013-08-19 07:17:00,75.0,73.8,29.98,East,80,0.0,6.0,96,0.00,,,0.00,meteohub,2013-08-19 11:17:00,
2013-08-19 07:22:00,75.0,73.8,29.98,East,79,0.0,5.0,96,0.00,,,0.00,meteohub,2013-08-19 11:22:00,
2013-08-19 07:27:00,75.0,73.8,29.99,East,79,0.0,3.0,96,0.00,,,0.00,meteohub,2013-08-19 11:27:00,
2013-08-19 07:32:00,75.0,73.8,29.99,East,79,2.0,3.0,96,0.00,,,0.00,meteohub,2013-08-19 11:32:00,
2013-08-19 07:37:00,75.4,74.1,29.99,East,79,0.0,3.0,96,0.00,,,0.00,meteohub,2013-08-19 11:37:00,
2013-08-19 07:42:00,75.4,74.1,29.99,East,79,0.0,3.0,96,0.00,,,0.00,meteohub,2013-08-19 11:42:00,
2013-08-19 07:47:00,75.6,74.3,29.99,East,80,0.0,3.0,96,0.00,,,0.00,meteohub,2013-08-19 11:47:00,
2013-08-19 07:52:00,75.7,74.5,30.00,East,79,0.0,2.0,96,0.00,,,0.00,meteohub,2013-08-19 11:52:00,
2013-08-19 07:57:00,75.9,74.7,30.00,East,79,1.0,2.0,96,0.00,,,0.00,meteohub,2013-08-19 11:57:00,
2013-08-19 08:02:00,76.3,75.0,30.00,East,79,1.0,2.0,96,0.00,,,0.00,meteohub,2013-08-19 12:02:00,
2013-08-19 08:07:00,76.5,75.2,30.00,East,79,0.0,2.0,96,0.00,,,0.00,meteohub,2013-08-19 12:07:00,
2013-08-19 08:12:00,76.6,75.4,30.00,East,80,0.0,2.0,96,0.00,,,0.00,meteohub,2013-08-19 12:12:00,
2013-08-19 08:17:00,76.8,75.6,30.00,East,79,0.0,5.0,96,0.00,,,0.00,meteohub,2013-08-19 12:17:00,
2013-08-19 08:22:00,77.0,75.4,30.00,East,79,1.0,5.0,95,0.00,,,0.00,meteohub,2013-08-19 12:22:00,
2013-08-19 08:27:00,77.2,75.6,30.01,East,79,3.0,5.0,95,0.00,,,0.00,meteohub,2013-08-19 12:27:00,
2013-08-19 08:32:00,77.5,75.9,30.01,ENE,77,2.0,5.0,95,0.00,,,0.00,meteohub,2013-08-19 12:32:00,
2013-08-19 08:37:00,77.5,75.7,30.01,East,82,2.0,5.0,94,0.00,,,0.00,meteohub,2013-08-19 12:37:00,
2013-08-19 08:42:00,77.5,75.7,30.01,East,82,8.0,8.0,94,0.00,,,0.00,meteohub,2013-08-19 12:42:00,
2013-08-19 08:47:00,77.7,75.9,30.01,East,92,3.0,9.0,94,0.00,,,0.00,meteohub,2013-08-19 12:47:00,
2013-08-19 08:52:00,78.1,76.3,30.01,East,97,6.0,9.0,94,0.00,,,0.00,meteohub,2013-08-19 12:52:00,
2013-08-19 08:57:00,78.3,76.1,30.01,ENE,74,5.0,9.0,93,0.00,,,0.00,meteohub,2013-08-19 12:57:00,
2013-08-19 09:02:00,78.6,76.8,30.01,ENE,74,3.0,7.0,94,0.00,,,0.00,meteohub,2013-08-19 13:02:00,
2013-08-19 09:07:00,79.0,76.8,30.01,East,88,7.0,7.0,93,0.00,,,0.00,meteohub,2013-08-19 13:07:00,
2013-08-19 09:12:00,79.0,76.5,30.01,East,85,0.0,8.0,92,0.00,,,0.00,meteohub,2013-08-19 13:12:00,
2013-08-19 09:17:00,79.3,76.8,30.01,ESE,103,5.0,8.0,92,0.00,,,0.00,meteohub,2013-08-19 13:17:00,
2013-08-19 09:22:00,79.5,77.0,30.01,East,94,6.0,8.0,92,0.00,,,0.00,meteohub,2013-08-19 13:22:00,
2013-08-19 09:27:00,79.7,77.2,30.01,East,92,5.0,9.0,92,0.00,,,0.00,meteohub,2013-08-19 13:27:00,
2013-08-19 09:32:00,80.1,77.2,30.01,East,97,5.0,9.0,91,0.00,,,0.00,meteohub,2013-08-19 13:32:00,
2013-08-19 09:37:00,80.4,77.2,30.01,ESE,116,5.0,9.0,90,0.00,,,0.00,meteohub,2013-08-19 13:37:00,
2013-08-19 09:42:00,80.6,77.4,30.01,East,94,7.0,10.0,90,0.00,,,0.00,meteohub,2013-08-19 13:42:00,
2013-08-19 09:47:00,80.8,77.5,30.01,SE,135,5.0,10.0,90,0.00,,,0.00,meteohub,2013-08-19 13:47:00,
2013-08-19 09:52:00,81.1,77.9,30.01,ESE,106,2.0,10.0,90,0.00,,,0.00,meteohub,2013-08-19 13:52:00,
2013-08-19 09:57:00,81.7,78.1,30.01,SE,126,9.0,10.0,89,0.00,,,0.00,meteohub,2013-08-19 13:57:00,
2013-08-19 10:02:00,82.0,77.7,30.02,SSE,157,5.0,11.0,87,0.00,,,0.00,meteohub,2013-08-19 14:02:00,
2013-08-19 10:07:00,82.6,78.3,30.02,SSE,157,2.0,13.0,87,0.00,,,0.00,meteohub,2013-08-19 14:07:00,
2013-08-19 10:12:00,82.6,77.5,30.02,ESE,113,9.0,15.0,85,0.00,,,0.00,meteohub,2013-08-19 14:12:00,
2013-08-19 10:17:00,82.6,77.9,30.02,SE,134,7.0,15.0,86,0.00,,,0.00,meteohub,2013-08-19 14:17:00,
2013-08-19 10:22:00,82.9,77.9,30.02,SE,133,4.0,15.0,85,0.00,,,0.00,meteohub,2013-08-19 14:22:00,
2013-08-19 10:27:00,83.1,77.7,30.02,ESE,109,7.0,13.0,84,0.00,,,0.00,meteohub,2013-08-19 14:27:00,
2013-08-19 10:32:00,83.5,78.1,30.02,ESE,102,3.0,13.0,84,0.00,,,0.00,meteohub,2013-08-19 14:32:00,
2013-08-19 10:37:00,84.0,78.3,30.03,SE,142,8.0,13.0,83,0.00,,,0.00,meteohub,2013-08-19 14:37:00,
2013-08-19 10:42:00,84.0,77.5,30.03,East,88,5.0,13.0,81,0.00,,,0.00,meteohub,2013-08-19 14:42:00,
2013-08-19 10:47:00,83.8,77.7,30.03,SSE,159,9.0,11.0,82,0.00,,,0.00,meteohub,2013-08-19 14:47:00,
2013-08-19 10:52:00,83.8,77.7,30.02,ESE,116,7.0,12.0,82,0.00,,,0.00,meteohub,2013-08-19 14:52:00,
2013-08-19 10:57:00,84.0,78.3,30.02,SSE,152,2.0,12.0,83,0.00,,,0.00,meteohub,2013-08-19 14:57:00,
2013-08-19 11:02:00,84.0,77.9,30.03,ESE,109,1.0,12.0,82,0.00,,,0.00,meteohub,2013-08-19 15:02:00,
2013-08-19 11:07:00,84.4,78.3,30.03,SSE,156,6.0,12.0,82,0.00,,,0.00,meteohub,2013-08-19 15:07:00,
2013-08-19 11:17:00,84.4,78.3,30.03,SSE,148,6.0,13.0,82,0.00,,,0.00,meteohub,2013-08-19 15:17:00,
2013-08-19 11:22:00,84.4,78.3,30.03,SE,136,9.0,13.0,82,0.00,,,0.00,meteohub,2013-08-19 15:22:00,
2013-08-19 11:27:00,84.7,78.6,30.03,East,94,6.0,13.0,82,0.00,,,0.00,meteohub,2013-08-19 15:27:00,
2013-08-19 11:32:00,84.9,78.1,30.03,East,86,3.0,11.0,80,0.00,,,0.00,meteohub,2013-08-19 15:32:00,
2013-08-19 11:37:00,85.3,78.8,30.03,East,84,3.0,12.0,81,0.00,,,0.00,meteohub,2013-08-19 15:37:00,
2013-08-19 11:42:00,86.0,78.8,30.03,ESE,103,3.0,12.0,79,0.00,,,0.00,meteohub,2013-08-19 15:42:00,
2013-08-19 11:47:00,85.6,78.4,30.03,SE,134,2.0,12.0,79,0.00,,,0.00,meteohub,2013-08-19 15:47:00,
2013-08-19 11:52:00,85.6,77.9,30.03,East,92,10.0,11.0,78,0.00,,,0.00,meteohub,2013-08-19 15:52:00,
2013-08-19 11:57:00,85.6,78.4,30.03,East,96,7.0,12.0,79,0.00,,,0.00,meteohub,2013-08-19 15:57:00,
2013-08-19 12:02:00,85.8,78.6,30.03,ESE,123,2.0,12.0,79,0.00,,,0.00,meteohub,2013-08-19 16:02:00,
2013-08-19 12:07:00,85.8,77.7,30.02,SE,145,5.0,12.0,77,0.00,,,0.00,meteohub,2013-08-19 16:07:00,
2013-08-19 12:12:00,86.0,77.9,30.02,SE,145,6.0,12.0,77,0.00,,,0.00,meteohub,2013-08-19 16:12:00,
2013-08-19 12:17:00,86.0,77.5,30.02,South,180,1.0,12.0,76,0.00,,,0.00,meteohub,2013-08-19 16:17:00,
2013-08-19 12:22:00,86.0,77.9,30.02,ESE,105,1.0,12.0,77,0.00,,,0.00,meteohub,2013-08-19 16:22:00,
2013-08-19 12:27:00,86.5,78.1,30.02,SE,134,6.0,10.0,76,0.00,,,0.00,meteohub,2013-08-19 16:27:00,
2013-08-19 12:32:00,86.5,77.7,30.02,ESE,115,4.0,11.0,75,0.00,,,0.00,meteohub,2013-08-19 16:32:00,
2013-08-19 12:37:00,86.5,77.7,30.02,SSE,156,3.0,11.0,75,0.00,,,0.00,meteohub,2013-08-19 16:37:00,
2013-08-19 12:42:00,86.7,78.3,30.01,ESE,109,0.0,11.0,76,0.00,,,0.00,meteohub,2013-08-19 16:42:00,
2013-08-19 12:47:00,87.1,77.4,30.01,ESE,123,3.0,10.0,73,0.00,,,0.00,meteohub,2013-08-19 16:47:00,
2013-08-19 12:52:00,86.9,77.2,30.01,ESE,109,5.0,15.0,73,0.00,,,0.00,meteohub,2013-08-19 16:52:00,
2013-08-19 12:57:00,86.9,77.5,30.01,ESE,109,2.0,15.0,74,0.00,,,0.00,meteohub,2013-08-19 16:57:00,
2013-08-19 13:02:00,87.1,77.4,30.01,ESE,119,10.0,11.0,73,0.00,,,0.00,meteohub,2013-08-19 17:02:00,
2013-08-19 13:07:00,87.1,77.7,30.00,ENE,78,7.0,12.0,74,0.00,,,0.00,meteohub,2013-08-19 17:07:00,
2013-08-19 13:12:00,87.8,78.4,30.00,ESE,107,1.0,13.0,74,0.00,,,0.00,meteohub,2013-08-19 17:12:00,
2013-08-19 13:17:00,88.2,77.5,29.99,SE,125,6.0,13.0,71,0.00,,,0.00,meteohub,2013-08-19 17:17:00,
2013-08-19 13:22:00,88.0,77.4,29.99,ESE,123,7.0,13.0,71,0.00,,,0.00,meteohub,2013-08-19 17:22:00,
2013-08-19 13:27:00,87.6,77.5,29.99,ESE,110,0.0,11.0,72,0.00,,,0.00,meteohub,2013-08-19 17:27:00,
2013-08-19 13:32:00,88.2,77.5,29.99,East,100,9.0,13.0,71,0.00,,,0.00,meteohub,2013-08-19 17:32:00,
2013-08-19 13:37:00,88.0,77.0,29.99,ESE,111,3.0,13.0,70,0.00,,,0.00,meteohub,2013-08-19 17:37:00,
2013-08-19 13:42:00,87.8,76.8,29.99,ENE,62,3.0,12.0,70,0.00,,,0.00,meteohub,2013-08-19 17:42:00,
2013-08-19 13:47:00,87.6,76.1,29.99,ENE,65,3.0,13.0,69,0.00,,,0.00,meteohub,2013-08-19 17:47:00,
2013-08-19 13:52:00,88.0,77.9,29.99,ESE,114,7.0,13.0,72,0.00,,,0.00,meteohub,2013-08-19 17:52:00,
2013-08-19 13:57:00,88.2,76.6,29.99,East,92,3.0,13.0,69,0.00,,,0.00,meteohub,2013-08-19 17:57:00,
2013-08-19 14:02:00,88.3,75.9,29.99,ESE,117,8.0,11.0,67,0.00,,,0.00,meteohub,2013-08-19 18:02:00,
2013-08-19 14:07:00,88.5,76.6,29.99,ESE,113,5.0,11.0,68,0.00,,,0.00,meteohub,2013-08-19 18:07:00,
2013-08-19 14:12:00,89.1,76.6,29.98,ESE,112,4.0,11.0,67,0.00,,,0.00,meteohub,2013-08-19 18:12:00,
2013-08-19 14:17:00,89.4,77.5,29.98,SE,146,5.0,11.0,68,0.00,,,0.00,meteohub,2013-08-19 18:17:00,
2013-08-19 14:27:00,89.4,75.6,29.98,SSE,153,8.0,13.0,64,0.00,,,0.00,meteohub,2013-08-19 18:27:00,
2013-08-19 14:32:00,89.2,75.0,29.98,ESE,119,3.0,13.0,63,0.00,,,0.00,meteohub,2013-08-19 18:32:00,
2013-08-19 14:37:00,89.1,76.3,29.98,SE,134,4.0,13.0,66,0.00,,,0.00,meteohub,2013-08-19 18:37:00,
2013-08-19 14:42:00,89.8,75.0,29.98,South,173,7.0,11.0,62,0.00,,,0.00,meteohub,2013-08-19 18:42:00,
2013-08-19 14:47:00,89.6,74.8,29.97,SE,126,4.0,12.0,62,0.00,,,0.00,meteohub,2013-08-19 18:47:00,
2013-08-19 14:52:00,89.6,75.4,29.97,South,183,4.0,12.0,63,0.00,,,0.00,meteohub,2013-08-19 18:52:00,
2013-08-19 14:57:00,90.3,75.6,29.97,SE,124,6.0,12.0,62,0.00,,,0.00,meteohub,2013-08-19 18:57:00,
2013-08-19 15:02:00,90.3,74.5,29.97,SSE,151,5.0,11.0,60,0.00,,,0.00,meteohub,2013-08-19 19:02:00,
2013-08-19 15:07:00,90.3,74.1,29.97,SE,126,0.0,10.0,59,0.00,,,0.00,meteohub,2013-08-19 19:07:00,
2013-08-19 15:12:00,91.0,75.2,29.96,South,170,5.0,10.0,60,0.00,,,0.00,meteohub,2013-08-19 19:12:00,
2013-08-19 15:17:00,90.9,75.6,29.96,SE,135,0.0,10.0,61,0.00,,,0.00,meteohub,2013-08-19 19:17:00,
2013-08-19 15:22:00,90.9,74.5,29.96,South,173,4.0,10.0,59,0.00,,,0.00,meteohub,2013-08-19 19:22:00,
2013-08-19 15:27:00,90.7,73.9,29.95,South,187,0.0,10.0,58,0.00,,,0.00,meteohub,2013-08-19 19:27:00,
2013-08-19 15:32:00,91.0,74.7,29.95,SSE,163,1.0,10.0,59,0.00,,,0.00,meteohub,2013-08-19 19:32:00,
2013-08-19 15:37:00,91.4,74.5,29.95,SE,145,4.0,10.0,58,0.00,,,0.00,meteohub,2013-08-19 19:37:00,
2013-08-19 15:42:00,91.8,75.4,29.94,SSW,198,2.0,7.0,59,0.00,,,0.00,meteohub,2013-08-19 19:42:00,
2013-08-19 15:47:00,92.3,75.4,29.94,SSE,155,1.0,7.0,58,0.00,,,0.00,meteohub,2013-08-19 19:47:00,
2013-08-19 15:52:00,92.5,75.6,29.94,South,172,4.0,7.0,58,0.00,,,0.00,meteohub,2013-08-19 19:52:00,
2013-08-19 16:02:00,92.8,76.5,29.94,ESE,105,0.0,7.0,59,0.00,,,0.00,meteohub,2013-08-19 20:02:00,
2013-08-19 16:07:00,93.0,76.1,29.94,East,93,5.0,5.0,58,0.00,,,0.00,meteohub,2013-08-19 20:07:00,
2013-08-19 16:12:00,92.8,73.8,29.94,East,101,2.0,6.0,54,0.00,,,0.00,meteohub,2013-08-19 20:12:00,
2013-08-19 16:17:00,92.7,73.6,29.94,ESE,120,0.0,6.0,54,0.00,,,0.00,meteohub,2013-08-19 20:17:00,
2013-08-19 16:22:00,92.7,74.1,29.93,South,184,1.0,6.0,55,0.00,,,0.00,meteohub,2013-08-19 20:22:00,
2013-08-19 16:27:00,92.8,74.3,29.93,SSE,155,1.0,5.0,55,0.00,,,0.00,meteohub,2013-08-19 20:27:00,
2013-08-19 16:32:00,93.4,75.4,29.92,SW,223,3.0,5.0,56,0.00,,,0.00,meteohub,2013-08-19 20:32:00,
2013-08-19 16:37:00,93.9,74.1,29.92,SW,224,0.0,3.0,53,0.00,,,0.00,meteohub,2013-08-19 20:37:00,
2013-08-19 16:42:00,94.3,75.0,29.93,SW,232,3.0,3.0,54,0.00,,,0.00,meteohub,2013-08-19 20:42:00,
2013-08-19 16:47:00,92.8,77.9,29.93,WNW,288,7.0,8.0,62,0.00,,,0.00,meteohub,2013-08-19 20:47:00,
2013-08-19 16:52:00,90.7,78.6,29.93,WNW,299,5.0,9.0,68,0.00,,,0.00,meteohub,2013-08-19 20:52:00,
2013-08-19 16:57:00,89.4,78.8,29.92,West,277,7.0,11.0,71,0.00,,,0.00,meteohub,2013-08-19 20:57:00,
2013-08-19 17:02:00,88.9,78.3,29.92,West,263,8.0,11.0,71,0.00,,,0.00,meteohub,2013-08-19 21:02:00,
2013-08-19 17:12:00,88.3,78.1,29.92,West,273,6.0,11.0,72,0.00,,,0.00,meteohub,2013-08-19 21:12:00,
2013-08-19 17:17:00,88.3,78.6,29.93,WNW,294,3.0,11.0,73,0.00,,,0.00,meteohub,2013-08-19 21:17:00,
2013-08-19 17:22:00,88.9,78.6,29.94,WSW,244,8.0,11.0,72,0.00,,,0.00,meteohub,2013-08-19 21:22:00,
2013-08-19 17:27:00,88.9,78.3,29.94,West,276,7.0,11.0,71,0.00,,,0.00,meteohub,2013-08-19 21:27:00,
2013-08-19 17:32:00,89.2,79.5,29.94,WNW,300,1.0,11.0,73,0.00,,,0.00,meteohub,2013-08-19 21:32:00,
2013-08-19 17:37:00,89.8,79.5,29.93,WNW,296,3.0,10.0,72,0.00,,,0.00,meteohub,2013-08-19 21:37:00,
2013-08-19 17:42:00,89.8,79.2,29.93,WNW,302,3.0,11.0,71,0.00,,,0.00,meteohub,2013-08-19 21:42:00,
2013-08-19 17:47:00,89.6,79.0,29.93,NW,305,4.0,11.0,71,0.00,,,0.00,meteohub,2013-08-19 21:47:00,
2013-08-19 17:52:00,89.8,79.2,29.93,WNW,302,10.0,11.0,71,0.00,,,0.00,meteohub,2013-08-19 21:52:00,
2013-08-19 17:57:00,89.8,78.6,29.93,WNW,285,9.0,11.0,70,0.00,,,0.00,meteohub,2013-08-19 21:57:00,
2013-08-19 18:02:00,89.2,79.0,29.92,WNW,293,5.0,11.0,72,0.00,,,0.00,meteohub,2013-08-19 22:02:00,
2013-08-19 18:12:00,88.2,78.8,29.92,West,270,8.0,12.0,74,0.00,,,0.00,meteohub,2013-08-19 22:12:00,
2013-08-19 18:17:00,88.2,78.8,29.94,WSW,246,1.0,12.0,74,0.00,,,0.00,meteohub,2013-08-19 22:17:00,
2013-08-19 18:22:00,85.8,75.7,29.96,South,182,7.0,12.0,72,0.00,,,0.00,meteohub,2013-08-19 22:22:00,
2013-08-19 18:27:00,79.5,73.2,29.96,South,180,15.0,33.0,81,0.03,,,0.03,meteohub,2013-08-19 22:27:00,
2013-08-19 18:32:00,75.2,71.4,29.97,SSE,148,18.0,36.0,88,0.08,,,0.08,meteohub,2013-08-19 22:32:00,
2013-08-19 18:37:00,73.0,70.3,29.97,SSE,160,12.0,38.0,91,0.23,,,0.23,meteohub,2013-08-19 22:37:00,
2013-08-19 18:42:00,72.3,69.8,29.98,ESE,109,9.0,38.0,92,0.40,,,0.40,meteohub,2013-08-19 22:42:00,
2013-08-19 18:47:00,72.1,70.0,29.96,ENE,78,7.0,38.0,93,0.50,,,0.50,meteohub,2013-08-19 22:47:00,
2013-08-19 18:52:00,72.7,70.9,29.97,ESE,103,0.0,30.0,94,0.66,,,0.66,meteohub,2013-08-19 22:52:00,
2013-08-19 18:57:00,72.9,71.1,29.98,East,87,1.0,22.0,94,0.81,,,0.81,meteohub,2013-08-19 22:57:00,
2013-08-19 19:02:00,72.9,71.1,29.97,NNE,25,1.0,13.0,94,0.88,,,0.88,meteohub,2013-08-19 23:02:00,
2013-08-19 19:07:00,72.9,71.4,29.97,West,261,3.0,7.0,95,1.01,,,1.01,meteohub,2013-08-19 23:07:00,
2013-08-19 19:12:00,72.9,71.1,29.97,WNW,300,2.0,6.0,94,1.06,,,1.06,meteohub,2013-08-19 23:12:00,
2013-08-19 19:17:00,72.9,71.1,29.97,NNW,346,6.0,6.0,94,1.14,,,1.14,meteohub,2013-08-19 23:17:00,
2013-08-19 19:27:00,72.7,70.9,29.97,NW,323,3.0,7.0,94,1.10,,,1.14,meteohub,2013-08-19 23:27:00,
2013-08-19 19:32:00,72.5,70.7,29.98,NNW,330,2.0,7.0,94,1.00,,,1.14,meteohub,2013-08-19 23:32:00,
2013-08-19 19:37:00,72.3,70.5,29.98,North,0,0.0,7.0,94,0.87,,,1.15,meteohub,2013-08-19 23:37:00,
2013-08-19 19:42:00,72.3,70.5,29.97,NW,304,2.0,6.0,94,0.73,,,1.15,meteohub,2013-08-19 23:42:00,
2013-08-19 19:47:00,72.5,71.1,29.99,WNW,302,2.0,5.0,95,0.59,,,1.15,meteohub,2013-08-19 23:47:00,
2013-08-19 19:52:00,72.9,71.4,30.00,NNW,346,3.0,5.0,95,0.45,,,1.15,meteohub,2013-08-19 23:52:00,
2013-08-19 19:57:00,72.9,71.1,30.01,NNE,30,0.0,5.0,94,0.32,,,1.15,meteohub,2013-08-19 23:57:00,
2013-08-19 20:02:00,72.5,70.7,30.00,West,263,13.0,13.0,94,0.25,,,1.18,meteohub,2013-08-20 00:02:00,
2013-08-19 20:07:00,72.0,70.2,30.00,WNW,292,6.0,15.0,94,0.27,,,1.29,meteohub,2013-08-20 00:07:00,
2013-08-19 20:12:00,72.1,70.7,30.00,North,0,4.0,15.0,95,0.22,,,1.33,meteohub,2013-08-20 00:12:00,
2013-08-19 20:17:00,72.0,70.2,30.00,NW,311,0.0,15.0,94,0.24,,,1.38,meteohub,2013-08-20 00:17:00,
2013-08-19 20:22:00,72.1,70.7,30.01,WSW,256,6.0,10.0,95,0.24,,,1.38,meteohub,2013-08-20 00:22:00,
2013-08-19 20:27:00,72.7,71.2,30.01,WSW,251,2.0,8.0,95,0.24,,,1.38,meteohub,2013-08-20 00:27:00,
2013-08-19 20:32:00,72.5,71.1,30.00,NNW,336,2.0,6.0,95,0.24,,,1.38,meteohub,2013-08-20 00:32:00,
2013-08-19 20:37:00,72.7,71.2,29.99,NNW,338,2.0,6.0,95,0.23,,,1.38,meteohub,2013-08-20 00:37:00,
2013-08-19 20:42:00,72.7,71.2,29.99,NW,319,2.0,7.0,95,0.23,,,1.38,meteohub,2013-08-20 00:42:00,
2013-08-19 20:47:00,72.7,71.2,30.00,North,355,5.0,7.0,95,0.23,,,1.38,meteohub,2013-08-20 00:47:00,
2013-08-19 20:52:00,72.9,71.4,29.99,NNW,331,3.0,7.0,95,0.23,,,1.38,meteohub,2013-08-20 00:52:00,
2013-08-19 20:57:00,72.9,71.4,30.00,NW,318,0.0,7.0,95,0.23,,,1.38,meteohub,2013-08-20 00:57:00,
2013-08-19 21:02:00,72.9,71.4,30.00,NW,318,3.0,7.0,95,0.17,,,1.38,meteohub,2013-08-20 01:02:00,
2013-08-19 21:07:00,73.0,71.6,30.01,NW,318,0.0,5.0,95,0.08,,,1.38,meteohub,2013-08-20 01:07:00,
2013-08-19 21:12:00,73.0,71.6,30.01,SE,127,2.0,5.0,95,0.02,,,1.38,meteohub,2013-08-20 01:12:00,
2013-08-19 21:17:00,73.0,71.6,30.01,SE,124,1.0,5.0,95,0.00,,,1.38,meteohub,2013-08-20 01:17:00,
2013-08-19 21:22:00,73.0,71.6,30.01,SE,124,2.0,5.0,95,0.00,,,1.38,meteohub,2013-08-20 01:22:00,
2013-08-19 21:27:00,73.0,71.6,30.01,SE,124,0.0,5.0,95,0.00,,,1.38,meteohub,2013-08-20 01:27:00,
2013-08-19 21:32:00,73.0,71.6,30.00,SE,124,0.0,3.0,95,0.00,,,1.38,meteohub,2013-08-20 01:32:00,
2013-08-19 21:37:00,73.2,71.8,30.00,SE,124,0.0,3.0,95,0.00,,,1.38,meteohub,2013-08-20 01:37:00,
2013-08-19 21:42:00,73.2,71.8,30.00,SE,124,0.0,2.0,95,0.00,,,1.38,meteohub,2013-08-20 01:42:00,
2013-08-19 21:47:00,73.4,72.1,29.99,SE,124,0.0,2.0,96,0.00,,,1.38,meteohub,2013-08-20 01:47:00,
2013-08-19 21:52:00,73.6,72.3,30.00,SE,124,1.0,2.0,96,0.00,,,1.38,meteohub,2013-08-20 01:52:00,
2013-08-19 21:57:00,73.8,72.5,30.00,SE,124,0.0,2.0,96,0.00,,,1.38,meteohub,2013-08-20 01:57:00,
2013-08-19 22:02:00,73.9,72.7,30.01,ESE,123,3.0,3.0,96,0.00,,,1.38,meteohub,2013-08-20 02:02:00,
2013-08-19 22:07:00,73.9,72.7,30.01,WNW,292,4.0,5.0,96,0.00,,,1.38,meteohub,2013-08-20 02:07:00,
2013-08-19 22:12:00,74.1,72.7,30.01,WNW,289,6.0,7.0,95,0.00,,,1.38,meteohub,2013-08-20 02:12:00,
2013-08-19 22:17:00,73.9,72.5,30.01,NW,306,3.0,8.0,95,0.00,,,1.38,meteohub,2013-08-20 02:17:00,
2013-08-19 22:22:00,73.9,72.5,30.02,NNW,337,3.0,8.0,95,0.00,,,1.38,meteohub,2013-08-20 02:22:00,
2013-08-19 22:27:00,73.9,72.7,30.01,NNW,338,1.0,6.0,96,0.00,,,1.38,meteohub,2013-08-20 02:27:00,
2013-08-19 22:32:00,73.9,72.5,30.01,WNW,303,3.0,5.0,95,0.00,,,1.38,meteohub,2013-08-20 02:32:00,
2013-08-19 22:37:00,73.9,72.7,30.01,NW,321,3.0,6.0,96,0.00,,,1.38,meteohub,2013-08-20 02:37:00,
2013-08-19 22:42:00,74.5,73.2,30.01,North,355,3.0,6.0,96,0.00,,,1.38,meteohub,2013-08-20 02:42:00,
2013-08-19 22:47:00,74.3,73.0,30.01,NNW,341,3.0,6.0,96,0.00,,,1.38,meteohub,2013-08-20 02:47:00,
2013-08-19 22:52:00,74.1,72.9,30.01,NNW,340,2.0,5.0,96,0.00,,,1.38,meteohub,2013-08-20 02:52:00,
2013-08-19 22:57:00,74.1,72.9,30.01,North,0,4.0,5.0,96,0.00,,,1.38,meteohub,2013-08-20 02:57:00,
2013-08-19 23:02:00,74.3,73.0,30.01,North,355,2.0,6.0,96,0.00,,,1.38,meteohub,2013-08-20 03:02:00,
2013-08-19 23:07:00,74.5,73.2,30.01,North,355,0.0,6.0,96,0.00,,,1.38,meteohub,2013-08-20 03:07:00,
2013-08-19 23:12:00,74.3,73.0,30.01,North,355,0.0,6.0,96,0.00,,,1.38,meteohub,2013-08-20 03:12:00,
2013-08-19 23:17:00,74.1,72.9,30.01,North,355,2.0,3.0,96,0.00,,,1.38,meteohub,2013-08-20 03:17:00,
2013-08-19 23:22:00,74.1,72.9,30.01,North,355,2.0,3.0,96,0.00,,,1.38,meteohub,2013-08-20 03:22:00,
2013-08-19 23:27:00,74.3,73.0,30.01,North,355,0.0,3.0,96,0.00,,,1.38,meteohub,2013-08-20 03:27:00,
2013-08-19 23:32:00,74.1,72.9,30.01,North,355,1.0,3.0,96,0.00,,,1.38,meteohub,2013-08-20 03:32:00,
2013-08-19 23:37:00,74.1,72.9,30.01,North,355,0.0,3.0,96,0.00,,,1.38,meteohub,2013-08-20 03:37:00,
2013-08-19 23:42:00,73.9,72.7,30.01,North,355,0.0,3.0,96,0.00,,,1.38,meteohub,2013-08-20 03:42:00,
2013-08-19 23:47:00,73.8,72.5,30.01,North,355,1.0,3.0,96,0.00,,,1.38,meteohub,2013-08-20 03:47:00,
2013-08-19 23:52:00,73.8,72.5,30.01,North,355,0.0,2.0,96,0.00,,,1.38,meteohub,2013-08-20 03:52:00,
2013-08-19 23:57:00,73.8,72.5,30.01,NNW,335,3.0,3.0,96,0.00,,,1.38,meteohub,2013-08-20 03:57:00,